Other Public Products
Issued by NWS Charleston, SC

Current Version | Previous Version | Graphics & Text | Print | Product List | Glossary On
Versions: 1 2 3 4 5 6 7 8 9 10 11 12 13 14 15 16 17 18 19 20 21 22 23 24 25 26 27 28 29 30 31 32 33 34 35 36 37 38 39 40 41 42 43 44 45 46 47 48 49 50
000
FPUS82 KCHS 260327
OPUCHS

TEST...KCHS/KSAV Gateway Observations...TEST
National Weather Service Charleston SC
1100 PM EDT MON SEP 25 2017

NOTE: "fair" indicates few or no clouds below 12,000 feet with no
significant weather and/or obstructions to visibility.

SCZ050-WAZ558-NCZ071-TXZ119-213-PAZ071-DCZ001-FLZ074-172-MI076-
NYZ176-178-MAZ016-IL014-TNZ027-NJZ106-GAZ044-MD014-260400-

...Gateway Observations for Charleston International...

CITY           SKY/WX    TMP DP  RH WIND       PRES   REMARKS
Chas Airport   MOCLDY    74  69  85 N8        29.88S
Seattle        CLOUDY    63  54  72 SW3       30.12S
Charlotte      MOCLDY    71  66  84 N5        29.97S
Dallas DFW     CLOUDY    85  65  51 SE8       29.84R
Dallas Love    CLOUDY    84  64  50 SE13      29.85R
Philladelphia  CLOUDY    72  63  73 E6        30.02S
Wash National  CLOUDY    77  67  71 E5        30.02R
Baltimore      MOCLDY    74  66  76 E6        30.02R
Miami          CLOUDY    84  75  74 CALM      29.89S HX  92
Detroit        MOCLDY    75  69  81 CALM      30.00R
Newark         PTCLDY    72  65  78 NE3       30.03F
Laguardia      PTCLDY    72  65  78 E5        30.03F
J F K          PTCLDY    68  66  93 E3        30.04F
Boston Logan   CLEAR     66  65  96 CALM      30.07S
Ft. Lauderdale CLOUDY    81  77  88 VRB6      29.88F
Chicago O`Hare PTCLDY    76  57  51 SE6       29.93F
Chicago Midway PTCLDY    81  58  45 SE6       29.94S
Houston Bush   PTCLDY    77  72  84 SE5       29.85R
Houston Hobby  PTCLDY    81  72  74 SE6       29.84R
Nashville      CLEAR     76  67  73 CALM      29.97R
Atlanta        CLEAR     77  61  57 E3        29.97S

$$

GAZ044-118-TXZ119-213-NCZ071-DCZ001-MDZ014-506-PAZ021-071-NJZ106-
NYZ176-178-MAZ106-OHZ011-021-055-MIZ076-KYZ091-ILZ014-INZ047-
MNZ060-ONZ431-260400-

...Gateway Observations for Savannah International...

CITY           SKY/WX    TMP DP  RH WIND       PRES   REMARKS
Savannah Arpt  CLEAR     73  69  87 CALM      29.91R
Atlanta        CLEAR     77  61  57 E3        29.97S
Charlotte      MOCLDY    71  66  84 N5        29.97S
Dallas DFW     CLOUDY    85  65  51 SE8       29.84R
Houston Bush   PTCLDY    77  72  84 SE5       29.85R
Wash National  CLOUDY    77  67  71 E5        30.02R
Wash Dulles    MOCLDY    75  68  78 SE8       30.02R
Baltimore      MOCLDY    74  66  76 E6        30.02R
Philadelphia   CLOUDY    72  63  73 E6        30.02S
Newark         PTCLDY    72  65  78 NE3       30.03F
Laguardia      PTCLDY    72  65  78 E5        30.03F
J F K          PTCLDY    68  66  93 E3        30.04F
Boston         CLEAR     66  65  96 CALM      30.07S
Pittsburg      MOCLDY    74  64  71 CALM      30.03S
Akron          MOCLDY    74  58  57 S6        30.03S
Cleveland      MOCLDY    76  63  64 S6        30.02R
Cincinnati     PTCLDY    69  66  90 S5        30.00R
Columbus       PTCLDY    70  64  80 CALM      30.00S
Detroit        MOCLDY    75  69  81 CALM      30.00R
Chicago O`Hare PTCLDY    76  57  51 SE6       29.93F
Minneapolis    CLOUDY    59  58  96 N6        29.97F
Indianapolis   CLEAR     77  63  61 S8        29.99R
Toronto Canada PTCLDY    75  68  78 CALM      30.01S

$$




USA.gov is the U.S. government's official web portal to all federal, state and local government web resources and services.